Simultaneous Nadir Overpasses (SNOs) Predictions

Prediction of SNOs between NOAA-19 and TERRA Satellite Orbit:

Table of predicted SNOs for the next 14.0 days since TLE Epoch: 1/29/2022
Index Date (NOAA-19) Time (NOAA-19) Lat,Lon (NOAA-19) SZA (NOAA-19 ) Date (TERRA) Time (TERRA) Lat,Lon (TERRA) SZA (TERRA ) Distance(km) Time Diff (sec)
1 01/30/2022 13:27:09 -80.63,-166.57 80.49 01/30/2022 13:28:08 -80.62,-166.68 80.50 2.98 59
2 01/30/2022 14:18:13 80.63, 0.84 99.52 01/30/2022 14:17:34 80.62, 0.99 99.50 2.86 39
3 02/01/2022 19:51:11 -80.63, 97.65 81.12 02/01/2022 19:51:15 -80.63, 97.66 81.12 0.22 4
4 02/04/2022 01:24:19 80.64,-165.79 98.23 02/04/2022 01:24:55 80.64,-165.65 98.25 2.40 36
5 02/04/2022 02:15:13 -80.62, 1.86 81.77 02/04/2022 02:14:22 -80.64, 1.98 81.77 2.73 51
6 02/06/2022 07:48:20 80.63, 98.47 97.55 02/06/2022 07:48:01 80.65, 98.61 97.57 3.06 19
7 02/08/2022 13:21:18 -80.64,-165.02 83.16 02/08/2022 13:21:43 -80.62,-165.08 83.18 2.67 25
8 02/08/2022 14:12:22 80.63, 2.69 96.86 02/08/2022 14:11:09 80.62, 2.53 96.81 2.98 73
9 02/10/2022 18:54:26 80.65, -68.38 96.12 02/10/2022 18:55:22 80.65, -68.20 96.16 3.23 56



Historial Predications of SNOs between NOAA-19 and TERRA
